Weather History for Fort Drum, NY

Change the Weather History Date:

Tuesday, March 12, 2013

  Actual Average Record
Temperature  
Mean Temperature 40 °F -  
Max Temperature 44 °F 32 °F 64 °F (2012)
Min Temperature 34 °F 15 °F 1 °F (1998)
Degree Days  
Heating Degree Days 26    
Moisture  
Dew Point 38 °F    
Average Humidity 96    
Maximum Humidity 100    
Minimum Humidity 81    
Precipitation  
Precipitation 0.22 in - - ()
Sea Level Pressure  
Sea Level Pressure 29.81 in    
Wind  
Wind Speed 12 mph (SW)    
Max Wind Speed 24 mph    
Max Gust Speed 31 mph    
Visibility 10 miles    
Events Rain    
Averages and records for this station are not official NWS values.
T = Trace of Precipitation, MM = Missing Value Source: NWS Daily Summary

Daily Weather History Graph

Daily Weather History Graph

Search for Another Location

Airport:

Trip Planner

Search our weather history database for the weather conditions in past years. The results will help you decide how hot, cold, wet, or windy it might be!

Date:

Astronomy

Mar. 12, 2013 Rise Set
Actual Time 7:20 AM EDT 7:05 PM EDT
Civil Twilight 6:51 AM EDT 7:34 PM EDT
Nautical Twilight 6:17 AM EDT 8:07 PM EDT
Astronomical Twilight 5:44 AM EDT 8:41 PM EDT
Moon 7:22 AM EDT (3/12) 8:22 PM EDT (3/12)
Length of Visible Light 12h 43m
Length of Day
11h 45m
New Moon, 1% of the Moon is Illuminated
Mar 12
New Moon
Mar 19
First Quarter
Mar 27
Full
Apr 3
Last Quarter
Apr 10
New

Hourly Weather History & Observations

Time (EDT) Temp. Windchill Dew Point Humidity Pressure Visibility Wind Dir Wind Speed Gust Speed Precip Events Conditions
12:55 AM 44.1 °F 35.2 °F 41.2 °F 90% 29.76 in 10.0 mi SSE 23.0 mph 31.1 mph 0.03 in Rain Light Rain
1:55 AM 44.4 °F 35.7 °F 43.2 °F 95% 29.73 in 10.0 mi SSE 23.0 mph 31.1 mph 0.03 in Rain Light Rain
2:48 AM 44.6 °F 36.1 °F 44.6 °F 100% 29.72 in 10.0 mi SSE 21.9 mph 29.9 mph N/A   Overcast
2:52 AM 44.6 °F 36.6 °F 44.6 °F 100% 29.72 in 10.0 mi SSE 19.6 mph 31.1 mph N/A   Light Drizzle
2:55 AM 44.2 °F 35.2 °F 43.7 °F 98% 29.72 in 10.0 mi SSE 24.2 mph 31.1 mph 0.02 in   Light Drizzle
3:08 AM 44.6 °F 35.9 °F 44.6 °F 100% 29.72 in 10.0 mi SSE 23.0 mph 29.9 mph N/A   Overcast
3:16 AM 44.6 °F 36.1 °F 44.6 °F 100% 29.72 in 10.0 mi SSE 21.9 mph 31.1 mph N/A   Light Drizzle
3:30 AM 44.6 °F 36.4 °F 44.6 °F 100% 29.72 in 10.0 mi SSE 20.7 mph - N/A   Overcast
3:55 AM 44.4 °F 37.5 °F 44.2 °F 99% 29.73 in 10.0 mi SSE 15.0 mph 24.2 mph 0.00 in   Overcast
3:57 AM 44.6 °F 38.4 °F 44.6 °F 100% 29.73 in 10.0 mi SSE 12.7 mph 24.2 mph N/A Rain Light Rain
3:59 AM 44.6 °F 38.4 °F 44.6 °F 100% 29.73 in 10.0 mi South 12.7 mph - N/A Rain Light Rain
4:02 AM 44.6 °F 38.8 °F 44.6 °F 100% 29.74 in 10.0 mi South 11.5 mph - N/A Rain Light Rain
4:05 AM 44.6 °F 38.8 °F 42.8 °F 93% 29.74 in 10.0 mi South 11.5 mph - N/A Rain Light Rain
4:07 AM 44.6 °F 39.7 °F 42.8 °F 93% 29.74 in 10.0 mi South 9.2 mph - N/A Rain Light Rain
4:08 AM 44.6 °F 39.7 °F 42.8 °F 93% 29.74 in 10.0 mi South 9.2 mph - N/A Rain Light Rain
4:10 AM 44.6 °F 39.7 °F 42.8 °F 93% 29.74 in 10.0 mi South 9.2 mph - N/A Rain Light Rain
4:11 AM 44.6 °F 39.2 °F 42.8 °F 93% 29.74 in 10.0 mi South 10.4 mph - N/A Rain Light Rain
4:13 AM 42.8 °F 36.6 °F 42.8 °F 100% 29.75 in 10.0 mi South 11.5 mph - N/A Rain Light Rain
4:34 AM 42.8 °F 39.3 °F 42.8 °F 100% 29.75 in 9.0 mi SSE 5.8 mph - N/A   Overcast
4:40 AM 42.8 °F 41.1 °F 42.8 °F 100% 29.75 in 8.0 mi Variable 3.5 mph - N/A Rain Light Rain
4:50 AM 42.8 °F - 42.8 °F 100% 29.75 in 7.0 mi Calm Calm - N/A Rain Light Rain
4:54 AM 42.8 °F - 42.8 °F 100% 29.75 in 7.0 mi Calm Calm - N/A Rain Light Rain
4:55 AM 42.4 °F - 42.4 °F 100% 29.75 in 7.0 mi Calm Calm - 0.04 in Rain Light Rain
4:56 AM 42.8 °F - 42.8 °F 100% 29.75 in 7.0 mi Calm Calm - N/A Rain Light Rain
5:12 AM 42.8 °F - 42.8 °F 100% 29.75 in 7.0 mi Calm Calm - N/A   Light Drizzle
5:24 AM 42.8 °F 41.1 °F 42.8 °F 100% 29.76 in 4.0 mi Variable 3.5 mph - N/A Rain Light Rain
5:26 AM 42.8 °F 38.6 °F 42.8 °F 100% 29.76 in 5.0 mi SW 6.9 mph - N/A Rain Light Rain
5:53 AM 44.6 °F 41.4 °F 44.6 °F 100% 29.77 in 8.0 mi SSW 5.8 mph - N/A Rain Light Rain
5:55 AM 44.1 °F 40.8 °F 44.1 °F 100% 29.77 in 8.0 mi SW 5.8 mph - 0.02 in Rain Light Rain
5:57 AM 44.6 °F 41.4 °F 44.6 °F 100% 29.77 in 9.0 mi SW 5.8 mph - N/A Rain Light Rain
6:12 AM 44.6 °F 40.2 °F 44.6 °F 100% 29.78 in 7.0 mi WSW 8.1 mph - N/A   Drizzle
6:42 AM 44.6 °F 39.7 °F 44.6 °F 100% 29.78 in 7.0 mi WSW 9.2 mph - N/A   Light Drizzle
6:55 AM 41.7 °F 36.1 °F 41.7 °F 100% 29.79 in 10.0 mi West 9.2 mph - 0.03 in   Light Drizzle
7:25 AM 39.2 °F 32.5 °F 39.2 °F 100% 29.81 in 10.0 mi West 10.4 mph - N/A   Light Drizzle
7:40 AM 39.2 °F 32.5 °F 39.2 °F 100% 29.82 in 5.0 mi WSW 10.4 mph - N/A   Light Drizzle
7:46 AM 39.2 °F 32.5 °F 39.2 °F 100% 29.82 in 6.0 mi WSW 10.4 mph - N/A   Light Drizzle
7:55 AM 39.0 °F 32.3 °F 39.0 °F 100% 29.81 in 9.0 mi West 10.4 mph 17.3 mph 0.01 in   Light Drizzle
7:59 AM 39.2 °F 33.6 °F 39.2 °F 100% 29.81 in 9.0 mi WSW 8.1 mph 17.3 mph N/A   Light Drizzle
8:05 AM 39.2 °F 33.0 °F 39.2 °F 100% 29.82 in 9.0 mi WSW 9.2 mph - N/A   Light Drizzle
8:10 AM 39.2 °F 33.6 °F 39.2 °F 100% 29.82 in 10.0 mi WSW 8.1 mph - N/A   Overcast
8:11 AM 39.2 °F 32.5 °F 39.2 °F 100% 29.82 in 10.0 mi WSW 10.4 mph - N/A   Overcast
8:17 AM 39.2 °F 32.5 °F 39.2 °F 100% 29.83 in 10.0 mi WSW 10.4 mph - N/A Rain Light Rain
8:18 AM 39.2 °F 32.5 °F 39.2 °F 100% 29.83 in 10.0 mi WSW 10.4 mph - N/A Rain Light Rain
8:20 AM 39.2 °F 32.5 °F 39.2 °F 100% 29.83 in 10.0 mi WSW 10.4 mph - N/A Rain Light Rain
8:22 AM 39.2 °F 32.5 °F 39.2 °F 100% 29.83 in 10.0 mi WSW 10.4 mph - N/A Rain Light Rain
8:36 AM 39.2 °F 32.0 °F 39.2 °F 100% 29.83 in 9.0 mi WSW 11.5 mph 20.7 mph N/A   Light Drizzle
8:46 AM 39.2 °F 32.5 °F 39.2 °F 100% 29.82 in 9.0 mi WSW 10.4 mph - N/A   Overcast
8:55 AM 38.3 °F 32.5 °F 38.3 °F 100% 29.82 in 10.0 mi SW 8.1 mph - 0.01 in   Overcast
8:56 AM 39.2 °F 33.6 °F 39.2 °F 100% 29.82 in 10.0 mi SW 8.1 mph - N/A   Overcast
9:04 AM 39.2 °F 33.6 °F 39.2 °F 100% 29.82 in 10.0 mi WSW 8.1 mph - N/A   Overcast
9:09 AM 39.2 °F 33.0 °F 39.2 °F 100% 29.81 in 10.0 mi WSW 9.2 mph - N/A   Mostly Cloudy
9:15 AM 39.2 °F 33.6 °F 39.2 °F 100% 29.81 in 10.0 mi WSW 8.1 mph - N/A   Light Drizzle
9:19 AM 39.2 °F 33.0 °F 39.2 °F 100% 29.81 in 10.0 mi WSW 9.2 mph - N/A   Light Drizzle
9:23 AM 39.2 °F 33.6 °F 39.2 °F 100% 29.81 in 10.0 mi WSW 8.1 mph - N/A   Light Drizzle
9:25 AM 39.2 °F 35.0 °F 39.2 °F 100% 29.81 in 10.0 mi WSW 5.8 mph - N/A   Mostly Cloudy
9:28 AM 39.2 °F 33.6 °F 39.2 °F 100% 29.82 in 10.0 mi WSW 8.1 mph - N/A   Mostly Cloudy
9:30 AM 39.2 °F 32.5 °F 39.2 °F 100% 29.82 in 10.0 mi SW 10.4 mph - N/A   Mostly Cloudy
9:33 AM 39.2 °F 32.5 °F 39.2 °F 100% 29.82 in 10.0 mi WSW 10.4 mph - N/A   Mostly Cloudy
9:40 AM 39.2 °F 33.0 °F 39.2 °F 100% 29.82 in 10.0 mi WSW 9.2 mph - N/A   Overcast
9:51 AM 37.4 °F 30.3 °F 37.4 °F 100% 29.83 in 10.0 mi WSW 10.4 mph - N/A   Overcast
9:52 AM 37.4 °F 30.8 °F 37.4 °F 100% 29.83 in 10.0 mi WSW 9.2 mph - N/A   Overcast
9:53 AM 37.4 °F 30.8 °F 37.4 °F 100% 29.82 in 10.0 mi WSW 9.2 mph - N/A   Overcast
9:54 AM 37.4 °F 30.8 °F 37.4 °F 100% 29.82 in 10.0 mi WSW 9.2 mph - N/A   Overcast
9:55 AM 38.1 °F 31.7 °F 37.9 °F 99% 29.82 in 10.0 mi WSW 9.2 mph - 0.00 in   Overcast
10:03 AM 37.4 °F 31.4 °F 37.4 °F 100% 29.82 in 10.0 mi WSW 8.1 mph - N/A   Overcast
10:11 AM 37.4 °F 30.8 °F 37.4 °F 100% 29.82 in 10.0 mi WSW 9.2 mph - N/A   Overcast
10:13 AM 37.4 °F 30.8 °F 37.4 °F 100% 29.82 in 10.0 mi WSW 9.2 mph - N/A   Overcast
10:22 AM 39.2 °F 32.5 °F 37.4 °F 93% 29.82 in 10.0 mi WSW 10.4 mph 18.4 mph N/A   Overcast
10:55 AM 37.8 °F 30.7 °F 36.9 °F 97% 29.83 in 10.0 mi West 10.4 mph 23.0 mph N/A   Overcast
11:17 AM 37.4 °F 30.3 °F 37.4 °F 100% 29.83 in 10.0 mi WSW 10.4 mph - N/A   Overcast
11:29 AM 37.4 °F 31.4 °F 37.4 °F 100% 29.83 in 10.0 mi WSW 8.1 mph - N/A   Overcast
11:30 AM 37.4 °F 29.8 °F 37.4 °F 100% 29.83 in 10.0 mi WSW 11.5 mph - N/A   Light Drizzle
11:47 AM 37.4 °F 30.8 °F 35.6 °F 93% 29.83 in 6.0 mi WSW 9.2 mph - N/A Rain Light Rain
11:53 AM 37.4 °F 31.4 °F 37.4 °F 100% 29.83 in 6.0 mi SW 8.1 mph - N/A Rain Light Rain
11:55 AM 37.2 °F 31.9 °F 36.9 °F 99% 29.83 in 6.0 mi SW 6.9 mph - 0.01 in Rain Light Rain
11:56 AM 37.4 °F 32.1 °F 37.4 °F 100% 29.83 in 8.0 mi SW 6.9 mph - N/A Rain Light Rain
11:57 AM 37.4 °F 32.1 °F 37.4 °F 100% 29.83 in 9.0 mi SW 6.9 mph - N/A Rain Light Rain
11:58 AM 37.4 °F 32.1 °F 37.4 °F 100% 29.83 in 10.0 mi WSW 6.9 mph - N/A Rain Light Rain
12:00 PM 37.4 °F 32.1 °F 37.4 °F 100% 29.83 in 10.0 mi WSW 6.9 mph - N/A Rain Light Rain
12:10 PM 37.4 °F 31.4 °F 37.4 °F 100% 29.83 in 10.0 mi SW 8.1 mph - N/A   Overcast
12:55 PM 37.9 °F 30.9 °F 36.9 °F 96% 29.82 in 10.0 mi WSW 10.4 mph 17.3 mph 0.00 in   Overcast
1:02 PM 37.4 °F 32.1 °F 37.4 °F 100% 29.82 in 10.0 mi WSW 6.9 mph - N/A   Overcast
1:04 PM 37.4 °F 32.1 °F 37.4 °F 100% 29.82 in 10.0 mi WSW 6.9 mph - N/A   Overcast
1:09 PM 37.4 °F 32.1 °F 35.6 °F 93% 29.82 in 10.0 mi WSW 6.9 mph - N/A   Overcast
1:11 PM 37.4 °F 31.4 °F 35.6 °F 93% 29.82 in 10.0 mi WSW 8.1 mph - N/A   Overcast
1:33 PM 37.4 °F 30.8 °F 35.6 °F 93% 29.82 in 10.0 mi WSW 9.2 mph - N/A   Light Drizzle
1:37 PM 37.4 °F 32.1 °F 35.6 °F 93% 29.82 in 8.0 mi WSW 6.9 mph - N/A Rain Light Rain
1:55 PM 37.2 °F 32.6 °F 36.3 °F 97% 29.82 in 10.0 mi WSW 5.8 mph - 0.00 in Rain Light Rain
2:30 PM 37.4 °F 32.1 °F 35.6 °F 93% 29.81 in 10.0 mi SW 6.9 mph - N/A Rain Light Rain
2:46 PM 37.4 °F 31.4 °F 35.6 °F 93% 29.80 in 10.0 mi WSW 8.1 mph - N/A   Mostly Cloudy
2:55 PM 37.6 °F 31.6 °F 36.5 °F 96% 29.81 in 10.0 mi WSW 8.1 mph - 0.01 in   Mostly Cloudy
2:56 PM 37.4 °F 31.4 °F 35.6 °F 93% 29.81 in 10.0 mi WSW 8.1 mph - N/A   Mostly Cloudy
2:58 PM 37.4 °F 31.4 °F 35.6 °F 93% 29.81 in 10.0 mi WSW 8.1 mph - N/A   Mostly Cloudy
2:59 PM 37.4 °F 30.8 °F 35.6 °F 93% 29.81 in 10.0 mi WSW 9.2 mph - N/A   Mostly Cloudy
3:55 PM 38.5 °F 30.3 °F 34.3 °F 85% 29.79 in 10.0 mi WSW 13.8 mph 21.9 mph N/A   Overcast
4:18 PM 39.2 °F 33.0 °F 33.8 °F 81% 29.80 in 10.0 mi West 9.2 mph - N/A   Overcast
4:19 PM 39.2 °F 33.6 °F 33.8 °F 81% 29.80 in 10.0 mi West 8.1 mph - N/A   Overcast
4:34 PM 37.4 °F 30.8 °F 33.8 °F 87% 29.81 in 10.0 mi West 9.2 mph 17.3 mph N/A Rain Light Rain
4:35 PM 37.4 °F 31.4 °F 33.8 °F 87% 29.81 in 10.0 mi WSW 8.1 mph - N/A Rain Light Rain
4:36 PM 37.4 °F 31.4 °F 33.8 °F 87% 29.81 in 10.0 mi WSW 8.1 mph 17.3 mph N/A Rain Light Rain
4:37 PM 37.4 °F 30.3 °F 35.6 °F 93% 29.81 in 10.0 mi WSW 10.4 mph 16.1 mph N/A Rain Light Rain
4:38 PM 37.4 °F 29.8 °F 35.6 °F 93% 29.81 in 10.0 mi West 11.5 mph 16.1 mph N/A Rain Light Rain
4:39 PM 37.4 °F 30.3 °F 35.6 °F 93% 29.81 in 10.0 mi West 10.4 mph 16.1 mph N/A Rain Light Rain
4:43 PM 37.4 °F 31.4 °F 35.6 °F 93% 29.81 in 10.0 mi West 8.1 mph - N/A Rain Light Rain
4:52 PM 37.4 °F 31.4 °F 35.6 °F 93% 29.81 in 10.0 mi West 8.1 mph - N/A   Light Drizzle
4:55 PM 37.4 °F 30.3 °F 34.9 °F 91% 29.81 in 10.0 mi WSW 10.4 mph - 0.00 in   Overcast
5:55 PM 38.5 °F 30.7 °F 33.6 °F 83% 29.82 in 10.0 mi West 12.7 mph 19.6 mph N/A   Overcast
6:00 PM 39.2 °F 33.0 °F 33.8 °F 81% 29.82 in 10.0 mi West 9.2 mph 19.6 mph N/A   Overcast
6:24 PM 37.4 °F 29.8 °F 33.8 °F 87% 29.83 in 10.0 mi WSW 11.5 mph 17.3 mph N/A   Overcast
6:55 PM 37.0 °F 29.3 °F 33.4 °F 87% 29.83 in 10.0 mi West 11.5 mph - N/A   Overcast
7:22 PM 37.4 °F 31.4 °F 33.8 °F 87% 29.85 in 10.0 mi WSW 8.1 mph 18.4 mph N/A   Overcast
7:33 PM 35.6 °F 27.1 °F 33.8 °F 93% 29.85 in 10.0 mi WSW 12.7 mph 17.3 mph N/A   Overcast
7:40 PM 35.6 °F 27.5 °F 33.8 °F 93% 29.85 in 10.0 mi West 11.5 mph - N/A   Overcast
7:55 PM 36.1 °F 27.7 °F 33.8 °F 91% 29.86 in 10.0 mi WSW 12.7 mph 17.3 mph N/A   Overcast
7:58 PM 35.6 °F 28.6 °F 33.8 °F 93% 29.86 in 10.0 mi West 9.2 mph 17.3 mph N/A   Overcast
8:05 PM 35.6 °F 28.6 °F 33.8 °F 93% 29.86 in 10.0 mi West 9.2 mph 18.4 mph N/A   Overcast
8:15 PM 35.6 °F 29.2 °F 33.8 °F 93% 29.86 in 10.0 mi West 8.1 mph 18.4 mph N/A   Overcast
8:55 PM 35.8 °F 29.4 °F 33.6 °F 92% 29.87 in 10.0 mi WSW 8.1 mph - 0.01 in   Overcast
9:02 PM 35.6 °F 28.0 °F 33.8 °F 93% 29.87 in 10.0 mi WSW 10.4 mph - N/A   Overcast
9:44 PM 35.6 °F 28.0 °F 32.0 °F 87% 29.88 in 10.0 mi WSW 10.4 mph - N/A   Overcast
9:54 PM 35.6 °F 30.7 °F 33.8 °F 93% 29.88 in 10.0 mi WSW 5.8 mph - N/A   Overcast
9:55 PM 35.6 °F 30.7 °F 32.9 °F 90% 29.87 in 10.0 mi WSW 5.8 mph - N/A   Overcast
9:57 PM 35.6 °F 29.2 °F 33.8 °F 93% 29.87 in 10.0 mi WSW 8.1 mph - N/A   Overcast
10:45 PM 35.6 °F 28.6 °F 33.8 °F 93% 29.88 in 10.0 mi WSW 9.2 mph - N/A   Overcast
10:55 PM 35.4 °F 27.8 °F 32.9 °F 91% 29.87 in 10.0 mi WSW 10.4 mph - N/A   Overcast
11:08 PM 35.6 °F 29.2 °F 33.8 °F 93% 29.88 in 10.0 mi WSW 8.1 mph - N/A   Overcast
11:17 PM 35.6 °F 29.2 °F 32.0 °F 87% 29.87 in 10.0 mi WSW 8.1 mph - N/A   Overcast
11:22 PM 35.6 °F 28.6 °F 33.8 °F 93% 29.87 in 10.0 mi West 9.2 mph - N/A   Overcast
11:23 PM 35.6 °F 28.6 °F 33.8 °F 93% 29.87 in 10.0 mi West 9.2 mph - N/A   Overcast
11:26 PM 35.6 °F 29.2 °F 33.8 °F 93% 29.87 in 10.0 mi WSW 8.1 mph - N/A   Overcast
11:55 PM 34.9 °F 28.3 °F 33.6 °F 95% 29.87 in 10.0 mi WSW 8.1 mph - N/A   Overcast